OSCAR 23 (KITSAT 1)

Satellite information

Favourite Embed

Satellite Type and Status

PAYLOADIN ORBIT

Key statistics

Satellite OSCAR 23 (KITSAT 1) at a glance.

Uptime

11962

Days in orbit

Revolutions

≈ 12.9

Per day

Orbit

LEO

Low Earth Orbit

Inclination

66.1

Latest

Satellite identification and parameters

Extended collection of information and parameters for OSCAR 23 (KITSAT 1).

Object identification

Identified? True

Debris? False

Object name: OSCAR 23 (KITSAT 1)

International designator: 1992-052B

Object number (NORAD): 22077

Object ID (CCSDS): 22077

Country: SOUTH KOREA (SKOR)

Current information (Y/N): Y

RCS size: MEDIUM

Orbital parameters

Period: 111.923 minutes

Inclination: 66.0867 deg

SMA: 7693.195 km

Apoapsis: 1318.352 km

Periapsis: 1311.768 km

RAAN: 44.6574 deg

Eccentricy: 0.0004279

Argument of periapsis: 195.152 deg

Mean anomaly: 337.6862 deg

Mean motion: 12.86597445 rev/day

Mean motion (dot): -0.00000058 rev/day2

B* drag term: 0.000013991 1/REarth

Two-line elements (TLE)

Creation date: May 10, 2025, 5:27 p.m.

Reference frame: TEME

Reference center: EARTH

Epoch: May 10, 2025, 12:43 p.m. UTC

TLE line 0: 0 OSCAR 23 (KITSAT 1)

TLE line 1: 1 22077U 92052B 25130.52998573 -.00000058 00000-0 13991-4 0 9996

TLE line 2: 2 22077 66.0867 44.6574 0004279 195.1520 337.6862 12.86597445537885

Live tracking on map

Real-time ground track for satellite OSCAR 23 (KITSAT 1).

In-orbit conjunctions

There are no conjunctions computed for OSCAR 23 (KITSAT 1), at the moment. Check back to stay up to date, as we update our databases every day.

Go to all conjunctions

Associated space launch

The TOPEX/POSEIDON satellite was launched on 10 August 1992 with the objective of "observing and understanding the ocean circulation". A joint project between NASA, the U.S. space agency, and CNES, the French space agency, it carries two radar altimeters and precise orbit determination systems, including the DORIS system. KITSAT-1 (Korean Institute of Technology Satellite) was a collaborative research mission, encompassing the installation of a groundstation in South Korea, participation of Korean engineers in the UoSAT-5 mission, technology transfer and training of students on the MSc courses at Surrey, and the involvement in a engineering and flight microsatellites. The S80/T satellite was built for CNES by Matra Marconi Space using the Surrey Satellite Technology Microbus (Uosat) bus.

OSCAR 23 (KITSAT 1) was lifted into orbit during the mission ‘Ariane 42P | Topex-Poseidon, Kitsat 1 & S80/T’, on board a Ariane 42P space rocket.

The launch took place on Aug. 10, 1992, 11:08 p.m. from Ariane Launch Area 2.

For more information about the launch, click the button.

Launch to space Ariane 42P | Topex-Poseidon, Kitsat 1 & S80/T
Ariane 42P | Topex-Poseidon, Kitsat 1 & S80/T

Agency: N/A

Status: Launch Successful

Launch date: Aug. 10, 1992, 11:08 p.m. UTC

Rocket: Ariane 42P

Launch pad: Ariane Launch Area 2

Location: Guiana Space Centre, French Guiana

...

Latest news about this satellite

There are no fresh news available about this satellite. Check back as we update our databases every day.


Newsletter sign-up

Weekly statistics, charts and insights to help you stay on top of the space industry.